Regional Weather Roundup
Issued by NWS

Home | Current Version | Previous Version | Text Only | Print | Product List | Glossary On
Versions: 1 2 3 4 5 6 7 8 9 10 11 12 13 14 15 16 17 18 19 20 21 22 23 24 25 26 27
000
ASCA42 TJSJ 260910
RWRPR
PUERTO RICO/U.S. VIRGIN ISLANDS HOURLY WEATHER ROUNDUP
NATIONAL WEATHER SERVICE SAN JUAN PR
500 AM AST FRI AUG 26 2016

PRZ001>002-007>008-010-261000-
PUERTO RICO

CITY           SKY/WX    TMP DP  RH WIND       PRES   REMARKS
SAN JUAN LMM   PTCLDY    81  75  83 CALM      29.92S
CEIBA          CLEAR     79  75  89 CALM      29.93R
$$

VIZ001>002-261000-
U.S. VIRGIN ISLANDS

CITY           SKY/WX    TMP DP  RH WIND       PRES   REMARKS
CHRISTIANSTED  MOCLDY    84  77  79 SE12      29.93R HX  94
$$

HOURLY WEATHER ROUNDUP FOR THE NEWS MEDIA

CITY           SKY/WX    TMP DP  RH WIND       PRES   REMARKS
ORLANDO        CLOUDY    78  75  90 N6        29.99S
NEW YORK       FAIR      73  69  87 S7        29.99F
NEWARK         MOCLDY    75  70  84 SW7       29.97F
CHICAGO        FAIR      67  61  81 N8        30.10R
HARTFORD       FAIR      75  70  84 SW13G21   29.96F
BOSTON         FAIR      73  69  87 SW9       29.95S
DALLAS         MOCLDY    79  72  79 S10       30.03F
PHILADELPHIA   MOCLDY    75  70  84 SW9       30.00S
LOS ANGELES    CLOUDY    66  60  81 SW3       29.92S
WASHINGTON DC  FAIR      74  72  93 CALM      30.03R



USA.gov is the U.S. government's official web portal to all federal, state and local government web resources and services.